Waarnemingen

Advertentie
Mijn weer
Ile Rousse, Frankrijk (7753): temperatuur & dauwpunt: 10.07.2019 04:00:00 - 16.07.2019 04:00:00 (CEST)Ile Rousse, Frankrijk (7753): windsnelheid & windstoten: 10.07.2019 04:00:00 - 16.07.2019 04:00:00 (CEST)Ile Rousse, Frankrijk (7753): windrichting: 10.07.2019 04:00:00 - 16.07.2019 04:00:00 (CEST)Ile Rousse, Frankrijk (7753): luchtdruk: 10.07.2019 04:00:00 - 16.07.2019 04:00:00 (CEST)Ile Rousse, Frankrijk (7753): zicht: 10.07.2019 04:00:00 - 16.07.2019 04:00:00 (CEST)Ile Rousse, Frankrijk (7753): neerslag: 10.07.2019 04:00:00 - 16.07.2019 04:00:00 (CEST)
Datum & Tijd tt [°C] td [°C] ff [km/u] ff [kn] fx [km/u] fx [kn] dd ppp [hPa] vv [km] rr [mm]
16.07.2019 04:00:00 19,6 16,2 26 14 49 26 O 1010,4 - 0,0
16.07.2019 03:00:00 20,4 16,6 34 18 55 30 ONO 1009,9 - 0,0
16.07.2019 02:00:00 19,2 16,6 27 15 54 29 O 1009,9 - 0,0
16.07.2019 01:00:00 18,4 17,2 22 12 50 27 O 1009,6 - 0,0
16.07.2019 00:00:00 18,9 17,7 29 16 46 25 O 1009,0 - 0,0
15.07.2019 23:00:00 18,7 16,7 29 15 71 38 ONO 1008,3 - 0,0
15.07.2019 22:00:00 19,0 17,3 42 23 64 35 NO 1007,4 - 0,0
15.07.2019 21:00:00 19,9 17,5 48 26 67 36 ONO 1006,1 - 0,0
15.07.2019 20:00:00 21,4 16,6 44 24 78 42 ONO 1005,1 - 0,0
15.07.2019 19:00:00 20,9 18,1 59 32 84 46 NO 1004,2 - 0,0
15.07.2019 18:00:00 21,4 18,4 61 33 78 42 NO 1003,2 - 0,0
15.07.2019 17:00:00 23,1 17,3 35 19 57 31 ONO 1002,8 25 0,0
15.07.2019 16:00:00 24,0 17,7 18 10 35 19 ZZO 1003,2 - 0,0
15.07.2019 15:00:00 24,6 17,6 19 11 40 22 OZO 1003,3 - 0,0
15.07.2019 14:00:00 22,6 19,0 40 22 80 43 NNO 1003,3 - 0,0
15.07.2019 13:00:00 25,4 20,0 20 11 42 23 W 1002,6 - 0,0
15.07.2019 12:00:00 26,0 18,9 14 8 24 13 NW 1003,0 - 0,0
15.07.2019 11:00:00 25,1 20,1 10 5 22 12 NNW 1003,1 25 0,0
15.07.2019 10:00:00 24,4 19,5 10 5 15 8 N 1003,1 - 0,0
15.07.2019 09:00:00 23,3 19,9 11 6 21 11 WNW 1003,6 - 0,0
15.07.2019 08:00:00 22,6 20,1 13 7 20 11 W 1004,0 18 0,0
15.07.2019 07:00:00 22,2 19,7 15 8 18 10 WZW 1003,9 - 0,0
15.07.2019 06:00:00 22,3 19,1 6 3 13 7 WZW 1004,0 - 0,0
15.07.2019 05:00:00 21,4 18,6 9 5 25 13 ZZO 1004,5 18 0,0
15.07.2019 04:00:00 22,3 17,7 12 6 - - ZO 1004,9 - 0,0
15.07.2019 03:00:00 20,6 16,8 16 9 27 15 OZO 1005,7 - 0,0
15.07.2019 02:00:00 20,7 17,9 16 9 52 28 OZO 1006,4 - -
15.07.2019 01:00:00 24,4 20,7 11 6 20 11 Z 1006,3 - 0,0
15.07.2019 00:00:00 24,4 20,7 7 4 14 8 ZO 1006,7 - 0,0
14.07.2019 23:00:00 24,3 20,6 8 4 11 6 N 1006,7 - 0,0
14.07.2019 22:00:00 24,7 20,2 4 2 5 3 ONO 1006,5 - 0,0
14.07.2019 21:00:00 25,0 20,5 4 2 8 5 N 1006,6 - 0,0
14.07.2019 20:00:00 25,5 20,5 5 3 13 7 W 1006,6 20 0,0
14.07.2019 19:00:00 26,6 20,4 6 4 16 9 NW 1007,0 - 0,0
14.07.2019 18:00:00 28,1 20,6 8 5 22 12 NW 1007,3 - 0,0
14.07.2019 17:00:00 25,7 20,7 16 9 30 16 W 1007,7 18 0,0
14.07.2019 16:00:00 26,4 20,7 19 10 28 15 W 1008,0 - 0,0
14.07.2019 15:00:00 28,2 20,7 13 7 24 13 WNW 1007,9 - 0,0
14.07.2019 14:00:00 27,5 21,1 14 7 25 14 NW 1008,3 20 0,0
14.07.2019 13:00:00 27,2 21,2 12 7 26 14 WNW 1008,8 - 0,0
14.07.2019 12:00:00 26,6 20,0 19 10 28 15 W 1009,1 - 0,0
14.07.2019 11:00:00 25,9 20,7 22 12 29 16 W 1009,1 20 0,0
14.07.2019 10:00:00 25,0 21,1 19 10 31 17 W 1009,2 - 0,0
14.07.2019 09:00:00 24,8 21,1 16 9 29 15 W 1009,1 - 0,0
14.07.2019 08:00:00 23,4 18,5 9 5 18 10 W 1008,7 18 0,0
14.07.2019 07:00:00 23,6 17,8 4 2 11 6 NNO 1008,2 - 0,0
14.07.2019 06:00:00 22,7 16,7 10 5 15 8 WZW 1008,3 - 0,0
14.07.2019 05:00:00 23,2 15,5 2 1 12 6 ZZO 1008,4 - 0,0
14.07.2019 04:00:00 22,9 15,2 12 6 27 14 O 1009,0 - 0,0
14.07.2019 03:00:00 23,0 19,4 19 10 23 12 O 1009,3 - 0,0
14.07.2019 02:00:00 23,4 19,1 11 6 14 8 O 1010,1 - 0,0
14.07.2019 01:00:00 23,7 20,8 12 6 19 11 ZW 1010,2 - 0,0
14.07.2019 00:00:00 23,7 21,2 5 3 9 5 ZW 1010,5 - 0,0
13.07.2019 23:00:00 24,2 21,5 5 3 6 4 NNW 1009,9 - 0,0
13.07.2019 22:00:00 24,9 19,9 6 3 9 5 ZW 1009,3 - 0,0
13.07.2019 21:00:00 25,3 21,0 3 1 10 5 N 1008,8 - 0,0
13.07.2019 20:00:00 26,0 20,3 6 4 15 8 O 1008,4 20 0,0
13.07.2019 19:00:00 27,7 21,7 8 4 26 14 WNW 1008,3 - 0,0
13.07.2019 18:00:00 27,7 21,3 18 10 34 18 W 1008,0 - 0,0
13.07.2019 17:00:00 27,6 20,7 24 13 36 19 W 1008,1 - 0,0
13.07.2019 16:00:00 27,9 19,9 22 12 40 22 W 1008,3 - 0,0
13.07.2019 15:00:00 27,8 19,8 27 15 46 25 W 1008,3 - 0,0
13.07.2019 14:00:00 27,4 18,4 30 16 52 28 W 1008,3 - 0,0
13.07.2019 13:00:00 27,5 18,8 33 18 60 32 W 1008,3 - 0,0
13.07.2019 12:00:00 27,9 17,7 38 21 61 33 W 1007,9 - 0,0
13.07.2019 11:00:00 27,3 16,6 40 21 68 37 W 1007,8 18 0,0
13.07.2019 10:00:00 27,2 16,8 39 21 67 36 W 1007,4 - 0,0
13.07.2019 09:00:00 27,1 17,0 36 20 65 35 W 1007,5 - 0,0
13.07.2019 08:00:00 28,4 10,6 42 23 81 44 ZW 1007,2 20 0,0
13.07.2019 07:00:00 27,7 12,9 46 25 81 44 WZW 1006,7 - 0,0
13.07.2019 06:00:00 27,3 13,6 39 21 81 44 WZW 1007,5 - 0,0
13.07.2019 05:00:00 27,4 14,4 43 23 69 37 WZW 1007,6 - 0,0
13.07.2019 04:00:00 27,3 14,7 40 22 70 38 WZW 1008,0 - 0,0
13.07.2019 03:00:00 27,4 14,8 47 26 79 43 ZW 1007,9 - 0,0
13.07.2019 02:00:00 27,2 14,6 46 25 75 40 ZW 1008,7 - 0,0
13.07.2019 01:00:00 26,9 14,3 53 29 81 44 ZW 1009,1 - 0,0
13.07.2019 00:00:00 27,0 14,1 37 20 61 33 ZW 1009,9 - 0,0
12.07.2019 23:00:00 27,7 13,2 42 23 74 40 ZW 1009,9 - -
12.07.2019 22:00:00 27,3 13,3 35 19 53 29 ZW 1010,1 - 0,0
12.07.2019 21:00:00 26,0 19,4 29 15 46 25 WZW 1010,1 - 0,0
12.07.2019 20:00:00 27,3 20,9 27 14 52 28 WZW 1010,1 25 0,0
12.07.2019 19:00:00 27,1 21,2 30 16 50 27 WZW 1010,1 - 0,0
12.07.2019 18:00:00 27,6 20,7 31 17 50 27 W 1010,4 - 0,0
12.07.2019 17:00:00 27,6 21,6 31 17 59 32 W 1010,6 25 0,0
12.07.2019 16:00:00 28,0 21,8 38 21 66 35 W 1010,6 - 0,0
12.07.2019 15:00:00 29,4 20,0 38 21 61 33 W 1010,0 - 0,0
12.07.2019 14:00:00 29,3 19,3 34 19 63 34 W 1010,1 25 0,0
12.07.2019 13:00:00 27,7 21,0 34 18 55 30 W 1010,3 - 0,0
12.07.2019 12:00:00 28,2 18,3 14 7 25 14 WNW 1011,1 - 0,0
12.07.2019 11:00:00 26,6 19,0 13 7 25 14 NO 1011,3 20 0,0
12.07.2019 10:00:00 26,2 18,3 17 9 23 13 NO 1011,3 - 0,0
12.07.2019 09:00:00 26,4 17,7 17 9 24 13 ONO 1011,3 - 0,0
12.07.2019 08:00:00 25,2 17,9 8 5 11 6 O 1011,0 - 0,0
12.07.2019 07:00:00 24,6 18,3 5 3 13 7 O 1010,8 - 0,0
12.07.2019 06:00:00 23,7 19,4 10 5 14 8 O 1010,6 - 0,0
12.07.2019 05:00:00 24,3 17,3 2 1 28 15 O 1010,8 20 0,0
12.07.2019 04:00:00 23,3 18,6 14 8 24 13 ZZW 1011,2 - 0,0
12.07.2019 03:00:00 23,3 19,9 7 4 14 7 WZW 1011,5 - 0,0
12.07.2019 02:00:00 23,5 20,2 8 4 28 15 WZW 1011,6 - 0,0
12.07.2019 01:00:00 23,8 20,7 18 10 32 17 WZW 1011,8 - 0,0
12.07.2019 00:00:00 24,3 20,8 21 11 40 21 W 1012,0 - 0,0
11.07.2019 23:00:00 24,6 20,9 23 12 45 24 W 1011,9 - 0,0
11.07.2019 22:00:00 24,7 21,4 23 13 38 20 WZW 1011,7 - 0,0
11.07.2019 21:00:00 25,0 21,5 15 8 24 13 WNW 1011,3 - 0,0
11.07.2019 20:00:00 25,2 21,5 11 6 19 11 W 1011,2 - 0,0
11.07.2019 19:00:00 25,8 21,5 6 3 18 10 WNW 1011,1 - 0,0
11.07.2019 18:00:00 27,4 21,9 6 3 17 9 WNW 1011,4 - 0,0
11.07.2019 17:00:00 27,0 21,7 10 5 21 11 NW 1012,3 18 0,0
11.07.2019 16:00:00 27,0 21,7 13 7 24 13 NW 1012,5 - 0,0
11.07.2019 15:00:00 27,3 21,8 18 10 29 16 W 1012,5 - 0,0
11.07.2019 14:00:00 27,4 21,9 20 11 30 16 W 1012,6 15 0,0
11.07.2019 13:00:00 27,3 22,0 22 12 31 17 W 1012,9 - 0,0
11.07.2019 12:00:00 26,9 21,9 18 10 27 14 WNW 1012,8 - 0,0
11.07.2019 11:00:00 26,6 21,6 13 7 20 11 NW 1012,9 17 0,0
11.07.2019 10:00:00 25,7 20,7 9 5 19 10 NW 1012,9 - 0,0
11.07.2019 09:00:00 25,8 20,4 4 2 15 8 NNW 1012,7 - 0,0
11.07.2019 08:00:00 24,6 20,1 0 0 6 3 N 1012,3 16 0,0
11.07.2019 07:00:00 24,5 20,2 3 2 8 4 ZZW 1012,1 - 0,0
11.07.2019 06:00:00 24,0 19,5 6 3 14 8 ZW 1011,8 - 0,0
11.07.2019 05:00:00 23,5 20,8 6 4 10 6 ZW 1012,1 16 0,0
11.07.2019 04:00:00 23,6 19,5 2 1 11 6 Z 1012,2 - 0,0
11.07.2019 03:00:00 23,9 19,8 8 4 19 10 ZW 1012,4 - 0,0
11.07.2019 02:00:00 23,9 19,4 10 6 16 9 W 1012,6 - 0,0
11.07.2019 01:00:00 24,0 19,5 9 5 16 8 W 1012,4 - 0,0
11.07.2019 00:00:00 24,6 17,3 3 2 16 9 O 1012,0 - 0,0
10.07.2019 23:00:00 24,5 17,5 11 6 13 7 ZO 1011,7 - 0,0
10.07.2019 22:00:00 25,0 18,7 5 3 9 5 O 1011,4 - 0,0
10.07.2019 21:00:00 25,5 18,7 2 1 9 5 ZO 1010,8 - 0,0
10.07.2019 20:00:00 26,1 20,0 6 3 11 6 NNO 1010,4 14 0,0
10.07.2019 19:00:00 26,8 20,4 8 4 16 9 NNO 1010,1 - 0,0
10.07.2019 18:00:00 28,0 20,8 8 4 22 12 NW 1010,1 15 0,0
10.07.2019 17:00:00 27,7 21,0 11 6 22 12 NNW 1009,9 - 0,0
10.07.2019 16:00:00 26,9 21,0 10 5 23 13 NNO 1009,7 - 0,0
10.07.2019 15:00:00 27,4 21,4 16 9 25 13 N 1009,8 - 0,0
10.07.2019 14:00:00 27,4 21,2 14 7 22 12 N 1009,6 15 0,0
10.07.2019 13:00:00 26,9 21,0 13 7 23 13 NNW 1009,8 - 0,0
10.07.2019 12:00:00 26,7 21,5 11 6 22 12 WZW 1009,3 - 0,0
10.07.2019 11:00:00 24,7 19,8 16 8 47 25 O 1009,1 15 0,0
10.07.2019 10:00:00 24,9 22,2 27 15 - - W 1007,7 15 0,0
10.07.2019 09:00:00 25,7 21,6 26 14 47 26 W 1007,4 - 0,0
10.07.2019 08:00:00 24,7 21,8 29 16 44 24 W 1006,9 15 -
10.07.2019 07:00:00 25,2 19,1 21 11 37 20 WZW 1006,9 - 0,0
10.07.2019 06:00:00 25,0 18,9 28 15 48 26 WZW 1006,8 - 0,0
10.07.2019 05:00:00 24,8 21,3 27 15 51 28 WZW 1006,4 - 0,0
10.07.2019 04:00:00 25,5 20,1 18 10 31 17 ZW 1007,0 - 0,0

tt = temperatuur
td = dauwpunt
ff = windsnelheid
fx = windstoten
dd = windrichting
ppp = luchtdruk
vv = zicht
rr = neerslag

Weerstations in de omgeving